Simultaneous Nadir Overpasses (SNOs) Predictions

Prediction of SNOs between LANDSAT-8 and NPP Satellite Orbit:

Table of predicted SNOs for the next 14.0 days since TLE Epoch: 5/26/2015
Index Date (LANDSAT-8) Time (LANDSAT-8) Lat,Lon (LANDSAT-8) SZA (LANDSAT-8 ) Date (NPP) Time (NPP) Lat,Lon (NPP) SZA (NPP ) Distance(km) Time Diff (sec)
1 05/27/2015 19:06:34 70.60,-109.69 49.18 05/27/2015 19:05:50 70.61,-109.62 49.19 2.78 44
2 05/27/2015 19:56:03 -70.55, 57.86 130.88 05/27/2015 19:56:32 -70.54, 57.82 130.89 1.74 29
3 05/30/2015 10:33:22 -71.49,-160.05 130.36 05/30/2015 10:32:16 -71.54,-162.74 130.26 94.81 66
4 05/30/2015 11:23:04 70.57, 6.15 48.73 05/30/2015 11:22:44 70.58, 6.19 48.74 1.89 20
5 05/30/2015 12:12:33 -70.52, 173.70 131.33 05/30/2015 12:13:26 -70.51, 173.63 131.34 2.99 53
6 06/02/2015 02:50:07 -70.65, -45.50 131.57 06/02/2015 02:48:54 -70.68, -45.51 131.53 3.49 73
7 06/02/2015 03:39:34 70.54, 121.98 48.33 06/02/2015 03:39:38 70.56, 122.00 48.34 2.00 4
8 06/02/2015 04:29:05 -70.38, -70.62 131.84 06/02/2015 04:30:18 -70.37, -70.39 131.86 8.66 73
9 06/04/2015 19:06:37 -70.61, 70.33 131.93 06/04/2015 19:05:47 -70.60, 70.38 131.94 2.32 50
10 06/04/2015 19:56:04 70.50,-122.19 47.96 06/04/2015 19:56:31 70.48,-122.12 47.94 3.28 27
11 06/07/2015 10:33:21 71.49, 19.97 48.66 06/07/2015 10:32:15 71.56, 17.21 48.79 97.72 66
12 06/07/2015 11:23:06 -70.58,-173.84 132.25 06/07/2015 11:22:40 -70.58,-173.82 132.24 0.87 26
13 06/07/2015 12:12:33 70.46, -6.36
